Location: Waco, TX
(31.5480°N, 97.1670°W)
Time: 22:14:30
(UTC-05:00)

ISS - Pass Details

Date: 19 May 2017
Orbit: 402 x 409 km, 51.6° (Epoch: 23 May)

Event Time Altitude Azimuth Distance (km) Brightness Sun altitude
Rises 08:40:36 0° 296° (WNW) 2,312 -0.4 25.9°
Reaches altitude 10° 08:43:11 10° 275° (W) 1,448 -1.5 26.5°
Maximum altitude 08:45:20 17° 233° (SW) 1,114 -1.9 26.9°
Drops below altitude 10° 08:47:29 10° 191° (SSW) 1,441 -1.1 27.4°
Sets 08:50:03 0° 170° (S) 2,294 0.0 27.9°
